Location: Newark
(48.1500°N, 13.1167°E)
Time: 22:39:22
(UTC+00:00)

XW-2D - Pass Details

Date: 12 December 2021
Orbit: 502 x 522 km, 97.5° (Epoch: 19 January)

Event Time Altitude Azimuth Distance (km) Brightness Sun altitude
Rises 15:57:53 0° 159° (SSE) 2,625 ? -7.2°
Reaches altitude 10° 15:59:58 10° 157° (SSE) 1,746 ? -7.5°
Maximum altitude 16:03:42 68° 75° (ENE) 567 ? -8.0°
Drops below altitude 10° 16:07:30 10° 352° (N) 1,771 ? -8.6°
Sets 16:09:38 0° 350° (N) 2,667 ? -8.9°
